Starlink 30791

operational
NORAD ID: 58177 Int'l Des: 2023-167 Owner: SPXS Country: US Constellation: starlink
LEOCIRCULAR

Starlink 30791について

説明を読み込み中...

リアルタイム位置

3D地球を読み込み中...

次回通過

高度履歴

Altitude vs Time

uPlot chart will show altitude changes over time

軌道要素

1 58177U 23167C 25303.24201231 .00000418 00000-0 46022-4 0 9996
2 58177 42.9983 134.6537 0000792 267.5811 92.4941 15.02537836111330
Epoch: Oct 30, 2025 • Age: 22 hours

現在のステータス

高度 558.7 km
速度 7.58 km/s
衛星直下点 1.63°N, 141.69°W
打ち上げ日 Oct 30, 2023
運用期間 2 years
タイプ internet

技術仕様

分類 Payload
質量 730.00 kg
乾燥質量 700.00 kg
総質量 730.00 kg
長さ 0.30 m
直径 4.10 m
スパン 29.00 m
形状 Box + pan
製造者 SPXS
バスタイプ Starlink V2M
フェーズステータス In Orbit
所有者/国 SPXS/US

大規模コンステレーション

Loading constellations...